x

Southeast Bering Sea -205nm Wnw Of Dutch Harbor, Ak (46073) Wave Buoy

10:50am - Wed 22nd Feb 2017 All times are UTC.

  • Sig Wave height 11.5ft
  • Swell Direction
  • Peak Period 8s
  • Average Period 7s
  • Wind
    11mph, 22mph gusts
  • Air Temp 40°f
  • Sea Pressure 1000mb

More Historic Weather Station data

Upgrade to MSW Pro to gain access to the past 30 days of data for over 8000 Wavebouys and Weather Stations around the globe.

Join Pro

Comparision Forecast

View Surf forecast
   
Wed 02/22 10:50am 11.5ft 8s 7s 11 22 mph 1000mb 40f
9:50am 10ft 8s 7s 9 16 mph 1000.4mb 40f
8:50am 10ft 7s 7s 9 16 mph 1000.4mb 39f
7:50am 11ft 11s 7s 9 18 mph 1000.7mb 38f
6:50am 10ft 14s 7s 11 25 mph 1001.1mb 36f
5:50am 10ft 14s 7s 11 25 mph 1001.9mb 36f
4:50am 11ft 14s 8s 9 22 mph 1003mb 36f
3:50am 11ft 14s 8s 9 20 mph 1003.2mb 36f
2:50am 11ft 14s 8s 9 18 mph 1003.3mb 38f
1:50am 10ft 11s 8s 7 16 mph 1003.1mb 38f
12:50am 10ft 15s 8s 7 16 mph 1003.6mb 38f
Tue 02/21 11:50pm 11.5ft 15s 8s 7 18 mph 1003.3mb 37f
10:50pm 10.5ft 15s 8s 9 22 mph 1002.7mb 38f
9:50pm 11.5ft 15s 8s 9 18 mph 1001.5mb 38f
8:50pm 11ft 11s 8s 9 18 mph 1000.6mb 37f
7:50pm 11.5ft 10s 8s 9 20 mph 999.7mb 37f
6:50pm 11ft 10s 8s 9 18 mph 998.7mb 37f
5:50pm 11ft 10s 8s 9 20 mph 997.6mb 37f
4:50pm 11.5ft 10s 8s 7 16 mph 996.5mb 37f
3:50pm 11ft 13s 8s 9 16 mph 995.8mb 37f
2:50pm 11ft 9s 8s 9 16 mph 994.9mb 37f
1:50pm 11ft 10s 8s 9 25 mph 994.1mb 37f
12:50pm 14ft 10s 9s 7 13 mph 993.3mb 37f
11:50am 12.5ft 10s 8s 7 16 mph 992.3mb 37f
10:50am 13.5ft 10s 8s 9 18 mph 991.3mb 37f
9:50am 13.5ft 10s 8s 4 9 mph 990.7mb 35f
8:50am 15.5ft 10s 8s 2 7 mph 990.6mb 36f
7:50am 15.5ft 11s 8s 7 13 mph 990.4mb 35f
6:50am 17.5ft 10s 9s 9 16 mph 990.5mb 35f
5:50am 16ft 10s 8s 11 20 mph 991mb 35f
4:50am 16ft 10s 8s 11 22 mph 991.5mb -
3:50am 16ft 11s 8s 11 22 mph 992mb -
2:50am 19ft 11s 8s 11 25 mph 992.5mb -
1:50am 15.5ft 11s 8s 13 29 mph 993.3mb -
12:50am 17ft 10s 8s 13 31 mph 994.5mb -
Mon 02/20 11:50pm 17ft 10s 8s 13 31 mph 995.7mb -
10:50pm 17.5ft 9s 8s 16 34 mph 997mb -
9:50pm 19.5ft 9s 8s 18 36 mph 998mb -
8:50pm 17.5ft 10s 8s 20 36 mph 999.6mb -
7:50pm 15ft 8s 7s 13 34 mph 1000.9mb -
6:50pm 14ft 8s 7s 13 38 mph 1002mb -
5:50pm 13ft 8s 7s 13 36 mph 1002.8mb -
4:50pm 11ft 8s 6s 13 29 mph 1004.1mb -
3:50pm 11ft 8s 6s 13 34 mph 1005mb -
2:50pm 10ft 8s 6s 16 31 mph 1006.2mb -
1:50pm 10ft 8s 6s 13 31 mph 1007.5mb -
12:50pm 8.5ft 7s 6s 16 29 mph 1009.3mb -
11:50am 7ft 7s 5s 13 29 mph 1010.3mb -
10:50am 7ft 6s 5s 11 29 mph 1011.7mb -
9:50am 6ft 6s 5s 11 25 mph 1013.5mb -
8:50am 5ft 5s 5s 11 25 mph 1013.8mb -
7:50am 4.5ft 5s 4s 11 22 mph 1015mb -
6:50am 3.5ft 4s 4s 9 18 mph 1016mb -
5:50am 3.5ft 5s 4s 9 20 mph 1016.4mb -
4:50am 3ft 4s 4s 9 18 mph 1017.3mb -
3:50am 2.5ft 6s 4s 7 13 mph 1017.9mb -
2:50am 3ft 6s 4s 4 11 mph 1018.9mb -
1:50am 2.5ft 5s 4s 4 9 mph 1018.8mb -
12:50am 2.5ft 6s 4s 7 18 mph 1018.8mb -
Sun 02/19 11:50pm 2.5ft 5s 4s 4 9 mph 1019mb -
10:50pm 2.5ft 6s 5s 7 13 mph 1019.2mb -
9:50pm 3ft 6s 5s 4 11 mph 1019.1mb -
8:50pm 3ft 6s 5s 2 9 mph 1019.1mb -
7:50pm 3.5ft 6s 5s 4 9 mph 1018.4mb -
6:50pm 3.5ft 6s 5s 2 7 mph 1018.4mb -
5:50pm 3.5ft 6s 5s 2 7 mph 1018.3mb -
4:50pm 4ft 6s 5s 2 9 mph 1018.3mb -
3:50pm 3.5ft 6s 5s  -  4 mph 1018mb -
2:50pm 4ft 6s 5s 4 11 mph 1018mb -
1:50pm 4ft 6s 5s 2 7 mph 1018mb -
12:50pm 4.5ft 6s 5s 2 7 mph 1017.9mb -
11:50am 4.5ft 7s 5s 4 13 mph 1017.7mb -
10:50am 4.5ft 6s 5s 4 7 mph 1017.5mb -
9:50am 4.5ft 6s 5s 4 11 mph 1017.5mb -
8:50am 5ft 7s 5s 4 9 mph 1017.1mb -